Stations météo

réclame
Mon MeteoGroup
Chievres, Belgique (6432): Température de l'air & dewpoint: 20.05.2018 23:00:00 - 26.05.2018 23:00:00 (CEST)Chievres, Belgique (6432): Vitesse du vent & gusts: 20.05.2018 23:00:00 - 26.05.2018 23:00:00 (CEST)Chievres, Belgique (6432): Direction du vent: 20.05.2018 23:00:00 - 26.05.2018 23:00:00 (CEST)Chievres, Belgique (6432): reduced air pressure: 20.05.2018 23:00:00 - 26.05.2018 23:00:00 (CEST)Chievres, Belgique (6432): visibility: 20.05.2018 23:00:00 - 26.05.2018 23:00:00 (CEST)
Date & Time tt [°C] td [°C] ff [km/h] ff [knt] fx [km/h] fx [knt] dd ppp [hPa] vv [km]
26.05.2018 23:00:00 23,1 16,7 11 6 - - E 1017,6 20
26.05.2018 22:00:00 24,2 17,2 11 6 18 10 E 1017,2 20
26.05.2018 21:00:00 25,6 16,4 11 6 18 10 ENE 1016,7 20
26.05.2018 20:00:00 26,9 17,2 11 6 - - E 1016,7 20
26.05.2018 19:00:00 27,6 16,0 14 8 25 14 E 1016,7 20
26.05.2018 18:00:00 28,2 17,0 14 8 25 14 E 1016,8 20
26.05.2018 17:00:00 29,0 15,5 11 6 - - E 1017,2 20
26.05.2018 16:00:00 28,1 17,1 14 8 25 14 E 1017,6 20
26.05.2018 15:00:00 27,1 15,8 14 8 29 16 E 1018,2 20
26.05.2018 14:00:00 26,7 16,5 18 10 - - E 1018,6 20
26.05.2018 13:00:00 26,4 15,7 18 10 29 16 E 1018,5 20
26.05.2018 12:00:00 25,7 15,7 18 10 25 14 E 1018,6 20
26.05.2018 11:00:00 24,8 17,1 11 6 - - ENE 1018,5 8
26.05.2018 10:00:00 22,7 17,7 7 4 14 8 E 1018,5 4,4
26.05.2018 09:00:00 19,2 16,5 7 4 11 6 ENE 1018,5 2,2
26.05.2018 08:00:00 16,5 15,9 7 4 - - ENE 1018,3 1,1
26.05.2018 07:00:00 15,6 15,3 7 4 11 6 NE 1018,7 0,8
26.05.2018 06:00:00 15,3 15,1 4 2 11 6 N 1018,3 0,7
26.05.2018 05:00:00 15,6 15,3 4 2 - - N 1018,5 0,8
26.05.2018 04:00:00 15,1 15,0 7 4 22 12 WNW 1018,7 0,7
26.05.2018 03:00:00 15,5 15,1 7 4 11 6 NE 1018,3 0,9
26.05.2018 02:00:00 16,0 15,5 7 4 - - NNE 1018,6 1,0
26.05.2018 01:00:00 16,6 15,9 11 6 14 8 NNE 1018,6 1,3
26.05.2018 00:00:00 17,2 16,4 7 4 18 10 NNE 1018,6 1,4
25.05.2018 23:00:00 18,2 16,8 11 6 - - NNE 1018,3 1,7
25.05.2018 22:00:00 19,6 17,4 14 8 22 12 NNE 1018,2 2,3
25.05.2018 21:00:00 20,9 17,5 14 8 22 12 NNE 1017,5 2,9
25.05.2018 20:00:00 23,8 15,2 7 4 - - N 1017,2 18
25.05.2018 19:00:00 24,2 14,4 4 2 11 6 N 1017,2 20
25.05.2018 18:00:00 24,4 15,6 7 4 11 6 N 1017,3 20
25.05.2018 17:00:00 24,6 14,0 4 2 - - N 1017,8 20
25.05.2018 16:00:00 24,6 13,5 7 4 11 6 N 1018,0 19
25.05.2018 15:00:00 23,4 13,4 7 4 14 8 WSW 1018,1 16
25.05.2018 14:00:00 23,1 13,0 4 2 - - N 1018,1 20
25.05.2018 13:00:00 21,7 14,4 4 2 11 6 N 1018,2 17
25.05.2018 12:00:00 21,5 14,7 4 2 7 4 N 1018,2 20
25.05.2018 11:00:00 19,8 14,8 4 2 - - N 1018,1 5
25.05.2018 10:00:00 17,9 14,9 4 2 7 4 N 1018,2 9
25.05.2018 09:00:00 15,9 14,0 4 2 11 6 N 1018,2 10
25.05.2018 08:00:00 14,3 13,9 4 2 - - N 1018,0 4,3
25.05.2018 07:00:00 11,7 11,7 4 2 7 4 N 1018,0 2,3
25.05.2018 06:00:00 10,8 10,8 4 2 7 4 N 1017,6 0,6
25.05.2018 05:00:00 11,0 11,0 4 2 - - N 1017,3 0,1
25.05.2018 04:00:00 12,5 12,4 4 2 4 2 N 1017,2 0,6
25.05.2018 03:00:00 12,6 12,5 4 2 7 4 N 1017,3 0,9
25.05.2018 02:00:00 13,1 12,9 4 2 - - N 1017,2 5
25.05.2018 01:00:00 13,6 13,4 7 4 7 4 N 1017,0 14
25.05.2018 00:00:00 14,1 13,8 4 2 22 12 N 1017,1 15
24.05.2018 23:00:00 16,0 13,8 18 10 - - WSW 1018,0 20
24.05.2018 22:00:00 15,9 14,9 4 2 7 4 N 1017,2 15
24.05.2018 21:00:00 17,1 16,2 4 2 11 6 N 1016,2 10
24.05.2018 20:00:00 17,8 16,2 7 4 - - NE 1016,3 14
24.05.2018 19:00:00 18,6 16,6 4 2 18 10 N 1016,0 10
24.05.2018 18:00:00 19,5 16,9 14 8 22 12 ESE 1016,3 10
24.05.2018 17:00:00 20,5 17,2 4 2 - - N 1016,2 9
24.05.2018 16:00:00 18,8 17,1 4 2 11 6 N 1016,6 7
24.05.2018 15:00:00 21,2 15,1 7 4 14 8 E 1016,7 15
24.05.2018 14:00:00 22,4 15,8 4 2 - - N 1017,2 10
24.05.2018 13:00:00 22,1 15,5 4 2 11 6 N 1017,7 16
24.05.2018 12:00:00 21,2 14,0 4 2 14 8 N 1018,0 10
24.05.2018 11:00:00 20,2 14,1 7 4 - - NE 1018,2 17
24.05.2018 10:00:00 18,7 14,4 11 6 18 10 ENE 1018,7 13
24.05.2018 09:00:00 16,4 14,6 7 4 14 8 NE 1019,0 8
24.05.2018 08:00:00 15,5 14,7 4 2 - - N 1018,8 6
24.05.2018 07:00:00 14,1 14,1 4 2 4 2 N 1019,2 2,6
24.05.2018 06:00:00 12,9 12,8 4 2 11 6 N 1019,1 1,6
24.05.2018 05:00:00 14,3 14,1 7 4 - - NE 1019,3 5
24.05.2018 04:00:00 14,5 14,4 7 4 11 6 NE 1019,6 5
24.05.2018 03:00:00 14,5 14,4 4 2 7 4 N 1019,6 11
24.05.2018 02:00:00 14,8 14,8 7 4 - - N 1019,7 10
24.05.2018 01:00:00 14,5 14,3 4 2 29 16 N 1020,5 8
24.05.2018 00:00:00 16,3 16,1 18 10 29 16 ESE 1021,0 2,3
23.05.2018 23:00:00 16,7 16,0 4 2 - - N 1019,7 4,2
23.05.2018 22:00:00 16,7 15,4 4 2 7 4 N 1019,7 6
23.05.2018 21:00:00 17,3 16,0 4 2 14 8 N 1019,6 6
23.05.2018 20:00:00 18,7 17,0 4 2 - - N 1019,1 5
23.05.2018 19:00:00 20,1 16,8 11 6 14 8 ENE 1018,3 10
23.05.2018 18:00:00 20,5 16,9 7 4 29 16 N 1018,6 8
23.05.2018 17:00:00 22,4 15,8 11 6 - - NE 1018,3 10
23.05.2018 16:00:00 21,5 15,7 11 6 22 12 NE 1018,7 6
23.05.2018 15:00:00 20,1 15,2 11 6 22 12 NE 1019,3 6
23.05.2018 14:00:00 18,8 15,5 11 6 - - NNE 1019,7 7
23.05.2018 13:00:00 18,3 15,5 11 6 18 10 NNE 1020,0 13
23.05.2018 12:00:00 17,2 15,1 11 6 18 10 NNE 1019,8 8
23.05.2018 11:00:00 16,7 15,3 11 6 - - NNE 1019,6 5
23.05.2018 10:00:00 15,6 14,8 7 4 11 6 N 1019,6 2,5
23.05.2018 09:00:00 14,3 13,9 7 4 14 8 N 1019,2 1,9
23.05.2018 08:00:00 13,5 13,0 7 4 - - N 1019,0 1,9
23.05.2018 07:00:00 13,0 12,5 4 2 7 4 N 1018,3 1,7
23.05.2018 06:00:00 12,8 12,2 4 2 11 6 N 1017,8 2,0
23.05.2018 05:00:00 13,0 12,5 4 2 - - N 1017,3 2,1
23.05.2018 04:00:00 13,2 12,9 4 2 7 4 N 1017,1 1,4
23.05.2018 03:00:00 13,6 13,2 7 4 7 4 N 1017,0 2,7
23.05.2018 02:00:00 14,0 13,6 4 2 - - N 1016,8 3,7
23.05.2018 01:00:00 13,3 12,9 4 2 7 4 N 1016,8 4,2
23.05.2018 00:00:00 14,1 13,5 7 4 11 6 N 1016,6 5
22.05.2018 23:00:00 14,8 14,3 7 4 - - NNE 1016,2 7
22.05.2018 22:00:00 15,3 14,6 7 4 14 8 N 1015,3 9
22.05.2018 21:00:00 15,5 14,3 4 2 18 10 N 1014,7 15
22.05.2018 20:00:00 15,6 13,4 11 6 - - ESE 1014,5 18
22.05.2018 19:00:00 16,8 15,3 14 8 36 19 N 1014,7 4,5
22.05.2018 18:00:00 17,2 14,5 22 12 43 23 N 1013,5 8
22.05.2018 17:00:00 21,2 12,7 32 18 - - N 1012,6 17
22.05.2018 16:00:00 24,5 14,3 7 4 14 8 W 1012,2 18
22.05.2018 15:00:00 22,9 13,9 4 2 11 6 N 1012,7 13
22.05.2018 14:00:00 22,0 14,1 4 2 - - N 1013,1 17
22.05.2018 13:00:00 22,5 15,7 4 2 11 6 N 1013,2 13
22.05.2018 12:00:00 20,9 15,3 4 2 11 6 N 1013,2 14
22.05.2018 11:00:00 19,7 14,7 4 2 - - N 1013,2 12
22.05.2018 10:00:00 17,4 14,3 4 2 7 4 N 1013,2 9
22.05.2018 09:00:00 15,3 13,7 4 2 7 4 N 1013,0 5
22.05.2018 08:00:00 13,1 12,6 4 2 - - N 1012,7 3,0
22.05.2018 07:00:00 10,3 10,1 4 2 7 4 N 1012,6 2,8
22.05.2018 06:00:00 9,9 9,9 7 4 7 4 N 1012,1 1,1
22.05.2018 05:00:00 10,2 10,1 4 2 - - N 1012,1 0,2
22.05.2018 04:00:00 11,0 10,8 4 2 4 2 N 1012,0 0,1
22.05.2018 03:00:00 11,2 11,0 4 2 7 4 N 1012,0 2,9
22.05.2018 02:00:00 12,6 12,1 4 2 - - N 1012,0 2,8
22.05.2018 01:00:00 13,5 12,8 4 2 11 6 N 1012,2 5
22.05.2018 00:00:00 14,0 13,6 4 2 7 4 N 1012,2 7
21.05.2018 23:00:00 15,1 14,9 4 2 - - N 1012,2 7
21.05.2018 22:00:00 15,0 14,5 4 2 11 6 N 1012,2 9
21.05.2018 21:00:00 16,3 15,2 4 2 4 2 N 1012,0 13
21.05.2018 20:00:00 16,3 14,3 4 2 - - N 1011,7 17
21.05.2018 19:00:00 16,3 12,7 7 4 22 12 WSW 1012,2 20
21.05.2018 18:00:00 20,8 13,5 14 8 22 12 NE 1011,7 15
21.05.2018 17:00:00 21,6 14,5 4 2 - - N 1012,2 16
21.05.2018 16:00:00 22,1 12,1 11 6 25 14 ENE 1012,7 20
21.05.2018 15:00:00 21,7 11,1 11 6 25 14 ENE 1013,2 20
21.05.2018 14:00:00 21,0 10,5 14 8 - - ENE 1013,6 20
21.05.2018 13:00:00 20,3 10,9 14 8 22 12 NE 1014,1 20
21.05.2018 12:00:00 20,1 10,7 18 10 29 16 E 1014,5 19
21.05.2018 11:00:00 18,4 13,1 14 8 - - ENE 1015,1 15
21.05.2018 10:00:00 16,8 12,2 14 8 25 14 E 1015,6 15
21.05.2018 09:00:00 16,2 12,5 4 2 7 4 N 1016,0 14
21.05.2018 08:00:00 14,1 12,1 4 2 - - N 1016,5 15
21.05.2018 07:00:00 13,8 11,6 11 6 22 12 NE 1016,3 15
21.05.2018 06:00:00 13,3 11,3 11 6 18 10 NE 1016,7 17
21.05.2018 05:00:00 12,1 11,0 7 4 - - NNE 1017,1 13
21.05.2018 04:00:00 13,0 11,1 4 2 18 10 N 1017,3 19
21.05.2018 03:00:00 14,1 10,8 11 6 25 14 E 1017,8 20
21.05.2018 02:00:00 14,8 11,5 11 6 - - ENE 1018,6 20
21.05.2018 01:00:00 13,8 12,3 7 4 14 8 ENE 1019,2 13
21.05.2018 00:00:00 14,6 12,7 11 6 18 10 NNE 1019,2 16
20.05.2018 23:00:00 14,1 12,8 11 6 - - NNW 1019,2 13

tt = Température de l'air
td = dewpoint
ff = Vitesse du vent
fx = gusts
dd = Direction du vent
ppp = reduced air pressure
vv = visibility

stations d'obs. à proximité